Location: Aldenham
(51.6667°N, 0.3500°W)
Time: 16:47:46
(UTC+00:00)

Vanguard 2 Rocket - Pass Details

Date: 17 February 2026
Orbit: 553 x 3286 km, 32.9° (Epoch: 11 March)

Event Time Altitude Azimuth Distance (km) Brightness Sun altitude
Rises 14:40:05 0° 246° (WSW) 6,978 12.5 19.2°
Reaches altitude 10° 14:45:52 10° 239° (WSW) 5,651 12.6 18.7°
Maximum altitude 14:58:44 31° 186° (S) 3,215 10.7 17.4°
Drops below altitude 10° 15:07:16 10° 129° (SE) 3,704 10.0 16.5°
Sets 15:10:10 0° 119° (ESE) 4,346 10.2 16.1°
